{"data":{"norad_id":62497,"epoch":"2026-09-21T17:09:29.363616Z","epoch_age_seconds":69529,"freshness":"FRESH","line1":"1 62497U 25003L   26264.71492319  .00014104  00000+0  52081-3 0  9992","line2":"2 62497  43.0026 261.6979 0001303 269.2551  90.8151 15.27596995 96650","mean_motion":15.27596995,"eccentricity":0.0001303,"inclination_deg":43.0026,"raan_deg":261.6979,"arg_perigee_deg":269.2551,"mean_anomaly_deg":90.8151,"bstar":0.00052081,"rev_number":9665,"period_min":94.26569996624,"perigee_km":482.10420145001,"apogee_km":483.89221328505,"semimajor_km":6861.1352073675,"source":"CELESTRAK","updated_at":"2026-09-22T09:00:49.618239Z"}}